Starlink 32844

operational
NORAD ID: 62820 Int'l Des: 2025-018 Owner: SPXS Country: US Constellation: starlink
LEOCIRCULAR

About Starlink 32844

Description loading...

Live Position

Loading 3D Globe...

Upcoming Passes

Altitude History

Altitude vs Time

uPlot chart will show altitude changes over time

Two-Line Element Set

1 62820U 25018Q 25257.57174965 .00025883 00000-0 88268-3 0 9990
2 62820 53.1605 47.6660 0001108 85.1730 274.9397 15.30211315 36207
Epoch: Sep 14, 2025 • Age: 22 hours

Current Status

Altitude 479.3 km
Velocity 7.63 km/s
Sub-Earth Point 45.94°N, 4.35°W
Launch Date Jan 24, 2025
Age 0.6 years
Type internet

Technical Details

Classification Payload
Mass 730.00 kg
Dry Mass 700.00 kg
Total Mass 730.00 kg
Length 0.30 m
Diameter 4.10 m
Span 29.00 m
Shape Box + pan
Manufacturer SPXS
Bus Type Starlink V2M
Phase Status In Orbit
Owner/State SPXS/US

Large Constellations

Loading constellations...